STARLINK-32595, 62037

Orbit data source: Space-Track

STARLINK-32595, 62037 is a payload satellite owned by SpaceX/Seattle (US) in LEO that was launched on Thu, 21 Nov 2024 UTC via an FALCON 9 launch vehicle from the Air Force Eastern Test Range (AFETR). Payloads include a variety of satellites, spacecraft, and rockets equipped with specific instruments for various scientific and technological missions. These include communications satellites like Starlink; space stations such as the ISS; scientific satellites like the Hubble; Earth observation satellites from companies like Planet Labs, Umbra, and HawkEye 360; GPS; miniature CubeSats for education and research; and military/defense satellites.

Loading next visibility...
STARLINK-32595 details
Identifier
62037, 2024-216F
Orbit
LEO
Last TLE update9 hours ago
Origin
Flag of USSpaceX/Seattle (US)
ManufacturerSpaceX/Seattle
MissionOperational spacecraft
Bus & MotorSTARLINK V2M, Unknown motor
Mass730 kg wet, ~700 kg dry
Launch date (UTC)
2024-11-21 (3 weeks ago)
Launch vehicle
FALCON 9
Launch site
Air Force Eastern Test Range (AFETR)
Object type
Payload
Rocket body
Debris
Shape & HBRUnknown
Radar Cross SectionLarge (>1 m²)

Expand to show TLE details & history

TLE from 9 hours ago
0 STARLINK-32595
1 62037U 24216F   24348.50002315 -.00006399  00000-0 -10331-3 0  9990
2 62037  42.9996 307.4028 0001166 278.1644 181.6660 15.50587779  4612
Epoch: 2024-12-13T12:00Z
Definitive object data (Epoch: 2024-12-13T12:00:02Z)
Latitude42.37782°
Longitude148.07169°
Altitude418.764 km
Speed7.665 km/s
True Right ascension03h 22m 58s
True Declination42° 11' 53"
Sunlit
Object was in full shadow at TLE epoch
Visualization TLE readout
Latitude43.01183°
Longitude138.28878°
Altitude418.912 km
Speed7.665 km/s
Apparent Right ascension05h 13m 55s
Apparent Declination3° 59' 14"
Sunlit
Object is in full shadow
Visualization observer readout
Local Sidereal Time19:46:50
Azimuth47.983° ENE
Elevation-33.809°
Doppler factor1
Orbital elements
Apogee altitude417.766 km
Perigee altitude416.181 km
Semi-major axis6,795.11 km
Eccentricity0.0001166
Inclination42.9996°
RAAN307.4028°
Arg. of periapsis278.1644°
True anomaly181.66561°
Mean anomaly181.666°
Eccentric anomaly181.66581°
Mean motion3.87479 °/min
BSTAR-0.00010331
Orbital period92.91 mins
Loading maneuver chart data...
Loading historical data...
Loading historical data...
Loading historical data...
Loading historical data...
Loading historical data...
Loading historical data...
Loading historical data...

STARLINK-32595 Visibility forecast

Observer location: undefined°, undefined

Span
Click to sort rows by Start time (UTC) header in descending order
Start Az.
Max El. time (UTC)
Max El. Az.
Max El.
End time (UTC)
End Az.
4 mins2024-12-14 01:45:08.295Z242.322° WSW2024-12-14 01:47:08.295Z89.817° E41°2024-12-14 01:49:08.295Z74.101° E
5 mins2024-12-14 03:22:08.295Z288.329° WNW2024-12-14 03:24:08.295Z352.991° N36.635°2024-12-14 03:27:08.295Z71.786° E
5 mins2024-12-14 05:00:08.295Z295.499° NW2024-12-14 05:02:08.295Z55.811° ENE42.007°2024-12-14 05:05:08.295Z99.247° ESE
|